User: anonymous   Login
Location: Unspecified
(0.0000°N, 0.0000°E)
Time: 02:20:51
(UTC+02:00)
Language:

Atlas Centaur 2 - Orbit

View from above orbital plane
View from above orbital plane
View from above satellite
View from above satellite

Ground track
Ground track

The orbit data is extracted from the following two-line orbital elements,

1   694U 63047A   17179.13011827 +.00000331 +00000-0 +31186-4 0  9997
2   694 030.3558 104.6502 0587840 126.4479 239.1772 14.02103687684638
Epoch (UTC): 28 June 2017 03:07:22
Eccentricity: 0.0587840
inclination: 30.3558°
perigee height: 459 km
apogee height: 1313 km
right ascension of ascending node: 104.6502°
argument of perigee: 126.4479°
revolutions per day: 14.02103687
mean anomaly at epoch: 239.1772°
orbit number at epoch: 68463

The dashed part of the orbit path shows where the satellite is in the earth's shadow,  

DLR